{"data":{"norad_id":58004,"epoch":"2026-09-20T16:48:19.155744Z","epoch_age_seconds":120347,"freshness":"FRESH","line1":"1 58004U 23153P   26263.70022171 -.00000295  00000+0 -11892-5 0  9993","line2":"2 58004  43.0051  45.4879 0001144 268.2594  91.8126 15.27577151164712","mean_motion":15.27577151,"eccentricity":0.0001144,"inclination_deg":43.0051,"raan_deg":45.4879,"arg_perigee_deg":268.2594,"mean_anomaly_deg":91.8126,"bstar":-1.1892e-6,"rev_number":16471,"period_min":94.266924525372,"perigee_km":482.27270631851,"apogee_km":483.84254764916,"semimajor_km":6861.1946269838,"source":"CELESTRAK","updated_at":"2026-09-21T09:00:33.755442Z"}}